Location: Crescent
(42.8242°N, 73.7329°W)
Time: 22:07:36
(UTC+00:00)

Vanguard 2 - Pass Details

Date: 10 November 2024
Orbit: 552 x 2909 km, 32.9° (Epoch: 14 December)

Event Time Altitude Azimuth Distance (km) Brightness Sun altitude
Rises 21:58:23 0° 269° (W) 6,214 13.9 -4.6°
Reaches altitude 10° 22:05:46 10° 247° (WSW) 5,540 13.8 -5.9°
Maximum altitude 22:12:25 13° 224° (SW) 5,393 12.9 -7.1°
Drops below altitude 10° 22:19:18 10° 200° (SSW) 5,708 12.5 -8.3°
Sets 22:27:23 0° 178° (S) 6,542 12.4 -9.7°
